Location: *
(37.5724°S, 58.0067°E)
Time: 10:32:05
(UTC+00:00)

H-2A ROCKET BODY - Pass Details

Date: 21 January 2021
Orbit: 216 x 15031 km, 28.6° (Epoch: 07 March)

Event Time Altitude Azimuth Distance (km) Brightness Sun altitude
Rises 17:25:51 0° 338° (NNW) 9,744 7.4 -19.6°
Reaches altitude 10° 17:32:40 10° 345° (NNW) 10,190 7.4 -20.6°
Maximum altitude 19:14:54 51° 53° (NE) 16,191 8.2 -30.7°
Drops below altitude 10° 20:45:44 10° 100° (E) 11,216 8.1 -32.4°
Sets 20:52:36 0° 103° (ESE) 10,873 8.1 -32.2°
